Flag for U.S.A. Weather past 2 weeks in Cleveland, Ohio, U.S.A.

Now
47 °F

Partly sunny.


Feels Like: 44 °F
Forecast: 42 / 59 °F
Wind: 6 mph from Southwest

Location: Cleveland-Hopkins International Airport

Current Time: Oct 24, 2014 at 10:48:35 AM

Latest Report: Oct 24, 2014 at 9:51 AM


Visibility: 9 mi

Pressure: 30.13 "Hg

Humidity: 83%

Dew point: 42 °F

Location of ClevelandLocation

Historic Weather in Cleveland — Graph

°F

Cleveland temperature yesterday

Maximum temperature yesterday: 55 °F (at 1:51 PM)
Minimum temperature yesterday: 39 °F (at 11:51 PM)
Average temperature yesterday: 48 °F

Past Weeks' High & Low Weather Summary

 TemperatureHumidityPressure
High77 °F (Oct 14, 2:51 PM)97% (Oct 16, 2:04 AM)30.30 "Hg (Oct 16, 2:04 AM)
Low33 °F (Oct 12, 5:51 AM)41% (Oct 12, 4:51 PM)29.56 "Hg (Oct 17, 2:51 PM)
Average53 °F77%29.99 "Hg
* Reported Oct 9 9:51 AM — Oct 24 9:51 AM, Cleveland, Weather by CustomWeather, © 2014

Note: Actual official high and low records may vary slightly from our data, if they occured in-between our weather recording intervals... More about our weather records

Advertising

Cleveland weather history for previous 24 hours

 ConditionsComfort  
Time TempWeatherWind HumidityBarometerVisibility
9:51 AM
Oct 24
47 °FPartly sunny.6 mph83%30.13 "Hg9 mi
8:51 AM43 °FPartly sunny.5 mph86%30.14 "Hg8 mi
7:51 AM40 °FPassing clouds.6 mph89%30.14 "Hg8 mi
6:51 AM38 °FPassing clouds.5 mph90%30.14 "Hg10 mi
5:51 AM39 °FPassing clouds.3 mph89%30.13 "Hg10 mi
4:51 AM37 °FPassing clouds.3 mph93%30.12 "Hg10 mi
3:51 AM37 °FPassing clouds.No wind93%30.12 "Hg10 mi
2:51 AM38 °FPassing clouds.3 mph93%30.13 "Hg10 mi
1:51 AM38 °FPassing clouds.5 mph90%30.13 "Hg10 mi
12:51 AM39 °FPassing clouds.5 mph89%30.14 "Hg10 mi
11:51 PM
Oct 23
39 °FPassing clouds.No wind93%30.14 "Hg10 mi
10:51 PM40 °FPassing clouds.3 mph89%30.15 "Hg10 mi
9:51 PM42 °FPassing clouds.5 mph89%30.14 "Hg10 mi
8:51 PM45 °FClear.5 mph82%30.15 "Hg10 mi
7:51 PM46 °FPassing clouds.3 mph79%30.15 "Hg10 mi
6:51 PM49 °FPassing clouds.5 mph74%30.16 "Hg10 mi
5:51 PM53 °FPassing clouds.7 mph64%30.16 "Hg10 mi
4:51 PM55 °FPassing clouds.5 mph62%30.16 "Hg10 mi
3:51 PM55 °FScattered clouds.7 mph62%30.18 "Hg10 mi
2:51 PM53 °FPartly sunny.9 mph69%30.19 "Hg10 mi
1:51 PM55 °FPartly sunny.12 mph69%30.20 "Hg10 mi
12:51 PM53 °FPartly sunny.10 mph74%30.22 "Hg10 mi
11:51 AM53 °FPartly sunny.13 mph74%30.24 "Hg10 mi
10:51 AM54 °FPartly sunny.8 mph77%30.24 "Hg10 mi
Weather by CustomWeather, © 2014

See weather overviewHow to use our weather pages